Regional Weather Roundup
Issued by NWS

Home | Current Version | Previous Version | Graphics & Text | Print | Product List | Glossary On
Versions: 1 2 3 4 5 6 7 8 9 10 11 12 13 14 15 16 17 18 19 20 21 22 23 24 25 26 27 28 29 30 31 32 33 34 35 36 37 38 39 40 41 42 43 44 45 46 47 48 49 50
652
ASUS44 KLIX 010705
RWRLA
LOUISIANA WEATHER ROUNDUP
NATIONAL WEATHER SERVICE NEW ORLEANS LA
200 AM CDT FRI AUG 01 2014

NOTE: "FAIR" INDICATES FEW OR NO CLOUDS BELOW 12,000 FEET WITH NO
      SIGNIFICANT WEATHER AND/OR OBSTRUCTIONS TO VISIBILITY.
      SKY/WX - SKY CONDITION AND SIGNIFICANT WEATHER.
      TMP - AIR TEMPERATURE.    DP   - DEWPOINT TEMPERATURE.
      RH  - RELATIVE HUMIDITY.  PRES - PRESSURE.
      HX  - HEAT INDEX.         WCI  - WIND CHILL INDEX.

*  THESE STATIONS ARE NOT NWS OR FAA STATIONS AND ARE NOT UNDER
   NWS QUALITY CONTROL.

LAZ040-048-061>063-065-066-069-010800-
SOUTHEAST LOUISIANA

CITY           SKY/WX    TMP DP  RH WIND       PRES   REMARKS
N.O. AUDUBON     N/A     82  70  67 MISG        N/A
N.O. INTL ARPT CLOUDY    78  70  76 CALM      29.98F
N.O. LAKEFRONT CLOUDY    80  68  66 E6        29.99F
N.O. DOWNTOWN* FAIR      82  64  54 CALM      29.99F
SLIDELL        CLOUDY    74  69  85 CALM      29.98F
BATON ROUGE    CLOUDY    74  68  81 NE6       29.99F
BOOTHVILLE     CLEAR     77  70  79 SE3       29.98F
BELLE CHASSE   CLOUDY    75  71  87 CALM      29.98F
BOGALUSA*      FAIR      73  68  84 CALM      30.02R
GALLIANO*      NOT AVBL
NEW ROADS*     CLOUDY    75  66  73 E7        29.98F
GONZALES*      FAIR      76  73  89 CALM      29.98F
HAMMOND*       CLOUDY    73  66  78 CALM      30.01F
HOUMA*         MOCLDY    74  69  83 CALM      29.98F
PORT FOURCHON* SUNNY     82  64  54 SE3       29.99F

$$

LAZ041-044-053-054-010800-
SOUTHWEST LOUISIANA

CITY           SKY/WX    TMP DP  RH WIND       PRES   REMARKS
LAKE CHARLES   CLOUDY    79  77  94 S3        29.95S
LAFAYETTE      CLOUDY    78  74  87 CALM      29.96F
PATTERSON      CLOUDY    77  73  88 SE5       30.01S
SALT POINT       N/A     84  74  71 VRB5      29.96F
NEW IBERIA     CLOUDY    78  74  87 SE5       29.97F
CHENAULT AIRPK CLOUDY    79  75  87 SE5       29.96R

$$

LAZ027-028-010800-
CENTRAL LOUISIANA

CITY           SKY/WX    TMP DP  RH WIND       PRES   REMARKS
FORT POLK      LGT RAIN  75  72  90 CALM      29.96S
ALEXANDRIA INT MOCLDY    75  71  87 E9        29.95F
ALEXANDRIA     MOCLDY    74  68  81 CALM      29.97F

$$

LAZ001-002-010800-
NORTHWEST LOUISIANA

CITY           SKY/WX    TMP DP  RH WIND       PRES   REMARKS
SHREVEPORT     LGT RAIN  68  66  93 E9        29.98F FOG
BARKSDALE AFB  MOCLDY    67  65  95 E12       29.98F
DTN SHREVEPORT LGT RAIN  67  65  93 E8        29.98F

$$

LAZ014-016-010800-
NORTHEAST LOUISIANA

CITY           SKY/WX    TMP DP  RH WIND       PRES   REMARKS
MONROE         RAIN      72  69  90 CALM      30.02S FOG
TALLULAH       CLOUDY    73  68  84 N5        30.01S

$$




USA.gov is the U.S. government's official web portal to all federal, state and local government web resources and services.